Location: Hains Lake
(37.8540°N, 99.8578°W)
Time: 15:16:08
(UTC+00:00)

Vanguard 1 - Pass Details

Date: 30 November 2022
Orbit: 649 x 3831 km, 34.2° (Epoch: 31 January)

Event Time Altitude Azimuth Distance (km) Brightness Sun altitude
Exits shadow 09:37:14 25° 137° (SE) 2,549 12.3 -46.4°
Drops below altitude 10° 09:41:37 10° 126° (SE) 4,034 13.5 -45.6°
Sets 09:46:09 0° 121° (ESE) 5,566 14.5 -44.7°
